COSMOS 2476 (744)

Last updated on Sun Mar 15 2026 00:03:26 GMT+0000 (Coordinated Universal Time)

1 37867U 11064A 26073.41389750 .00000058 00000+0 00000+0 0 9999 2 37867 65.2155 76.0697 0025193 241.7016 295.7217 2.13103967111742
UTC large
Height (km)
Speed (km/s)
/
Latitude / Longitude
Inclination (degrees)
Orbital Period (minutes)
Azimuth
Elevation
Range (km)
Doppler Factor

Next 0 passes for location: London (51.5072 / 0.1276)

Sorry there are no passes over London.